Airfield :







YOU CAN JOIN US ON...

 
LOGIN :

Register | Disclaimer

   EN    FR    IT 

 









Legend :    VFR   Marginal VFR   IFR   Intensive IFR   Very Intensive IFR
Visi :
Ceiling :
>= 8 km
>= 3000ft
5 to 8 km
1000 to 3000 ft
1500m to 5 km
500 to 1000 ft
800 to 1500m
200 to 500 ft
< 800m
< 200 ft
Symbols :   Thunderstorms  Fog  Heavy snow  Heavy precipitations  Wind > 20 kt






- Airport Elevation : 95 ft
- IATA code : GEO


SYCJ - Cheddi Jagan Int.

CURRENT METAR :
  • 030500Z 04004KT 9999 FEW008 SCT012 BKN080 24/23 Q1017 NOSIG

EXPIRED METARs :
  • 030400Z 04004KT 9999 FEW008 SCT014 BKN080 24/23 Q1017 NOSIG

TAF TAF SYCJ
Valid from the 03 at 06:00 until the 04 at 06:00 UTC


030500Z 0306/0406 VRB02KT 0800 FG SCT001 SCT014
BECMG 0311/0313 10010KT 9999 BKN018 BKN040
TEMPO 0315/0319 5000 TSRA FEW015CB
SYGC FIR / South America



MET'MAP, your aeronautical weather chart ! - Copyright ORBIFLY December 2007 - Disclaimer

ORBIFLY MET'MAP TEAM :

Programming & Development : Alexandra Zaïnal
Concept & original design : Baudouin d'Aumeries
Assistance for programming : Marc-Olivier Méhu
Technical & hardware support : Manuel Goepfert

Contact : metmap@orbifly.com




SOURCES & CREDITS :

   NOAA